STARLINK-11493, 62410

Orbit data source: Space-Track

STARLINK-11493, 62410 is a payload satellite owned by SpaceX/Seattle (US) in LEO that was launched on Mon, 23 Dec 2024 UTC via an FALCON 9 launch vehicle from the Air Force Eastern Test Range (AFETR). Payload-class satellites include a variety of spacecraft equipped with specific instruments for various scientific and technological missions. These include communications satellites like Starlink; space stations such as the ISS; scientific satellites like the Hubble; Earth observation satellites from companies like Planet Labs, Umbra, and HawkEye 360; GPS; miniature CubeSats for education and research; and military/defense satellites.

Loading next visibility...
Identifier
62410, 2024-249B
Orbit
LEO
Country
Flag of USUS
Related business
Manufacturer
SpaceX/Seattle
Mission
Operational Commercial Communications
Bus & Motor
STARLINK V2MD, Unknown motor
Mass
960 kg wet, ~910 kg dry
Launch date (UTC)
2024-12-23 (1 year ago)
Launch vehicle
FALCON 9
Launch site
Air Force Eastern Test Range (AFETR)
Object type
Payload
Rocket body
Debris
Shape & HBR
Box + 2 Pan, 18.1 m
Radar Cross Section
36.964 m², Large (>1 m²)

Expand to show TLE details & history
Last TLE update: 16 hours ago

TLE from 16 hours ago
0 STARLINK-11493
1 62410U 24249B   26171.16893842  .00240273  00000-0  18087-2 0  9996
2 62410  42.9997 270.3315 0004508 311.3639  48.6841 15.71012370 85594
Epoch: 2026-06-20T04:03Z
TLE epoch observation values (Epoch: 2026-06-20T04:03:16.279Z)
Latitude
0.00001°
Longitude
-58.87375°
Altitude
353.77 km
Speed
7.7 km/s
True Right ascension
18h 01m 19s
True Declination
0° 00' 00"
Sunlit
Object was in full shadow at epoch
Visualization orbit readout
Latitude
Unknown
Longitude
Unknown
Altitude
Unknown
Speed
Unknown
Apparent Right ascension
Unknown
Apparent Declination
Unknown
Sunlit
N/A
Visualization observer readout
Local Sidereal Time
07:18:22
Azimuth
Unknown
Elevation
Unknown
Doppler factor
Unknown
Orbital elements
Apogee altitude
361.021 km
Perigee altitude
354.948 km
Semi-major axis
6,736.121 km
Eccentricity
0.00045
Inclination
42.9997°
RAAN
270.3315°
Arg. of periapsis
311.3639°
True anomaly
48.72291°
Mean anomaly
48.6841°
Eccentric anomaly
48.70351°
Mean motion
3.9258 °/min
Orbital period
91.7 mins
BSTAR
0.0018087
Loading maneuver chart data...
Computing Atmospheric mass density...
Loading historical data...
Loading historical data...
Loading historical data...
Loading historical data...
Loading historical data...
Loading historical data...
Loading historical data...

Documentation

Showing up to 5 results
|